Alma, MI

12:22 AM EDT on August 24, 2017 (GMT -0400)
Gratiot Community

Weather History for KAMN - December, 2012

Change the Weather History Date:

Monday, December 17, 2012

  Actual Average Record
Temperature  
Mean Temperature 36 °F -  
Max Temperature 40 °F 33 °F 58 °F (1984)
Min Temperature 32 °F 19 °F 0 °F (1951)
Degree Days  
Heating Degree Days 29    
Moisture  
Dew Point 35 °F    
Average Humidity 87    
Maximum Humidity 95    
Minimum Humidity 74    
Precipitation  
Precipitation 0.00 in - - ()
Sea Level Pressure  
Sea Level Pressure 29.67 in    
Wind  
Wind Speed 5 mph (WSW)    
Max Wind Speed 10 mph    
Max Gust Speed -    
Visibility 10 miles    
Events      
Averages and records for this station are not official NWS values.
T = Trace of Precipitation, MM = Missing Value Source: NWS Daily Summary

Daily Weather History Graph

Daily Weather History Graph

Search for Another Location

Airport or City:

Trip Planner

Search our weather history database for the weather conditions in past years. The results will help you decide how hot, cold, wet, or windy it might be!

Date:

Astronomy

Dec. 17, 2012 Rise Set
Actual Time 8:05 AM EST 5:04 PM EST
Civil Twilight 7:33 AM EST 5:37 PM EST
Nautical Twilight 6:57 AM EST 6:13 PM EST
Astronomical Twilight 6:22 AM EST 6:47 PM EST
Moon 11:06 AM EST (12/17) 10:33 PM EST (12/17)
Length of Visible Light 10h 03m
Length of Day
8h 58m
Waxing Crescent, 24% of the Moon is Illuminated
Dec 17
Waxing Crescent
Dec 20
First Quarter
Dec 28
Full
Jan 4
Last Quarter
Jan 11
New

Hourly Weather History & Observations

Time (EST) Temp. Windchill Dew Point Humidity Pressure Visibility Wind Dir Wind Speed Gust Speed Precip Events Conditions
12:10 AM 40.8 °F 36.9 °F 39.2 °F 94% 29.64 in 10.0 mi WSW 5.8 mph - N/A   Overcast
12:30 AM 40.5 °F 35.1 °F 38.7 °F 93% 29.64 in 10.0 mi WSW 8.1 mph - N/A   Overcast
12:51 AM 40.3 °F 34.9 °F 38.3 °F 93% 29.64 in 10.0 mi WSW 8.1 mph - N/A   Overcast
1:11 AM 40.1 °F 34.1 °F 37.9 °F 92% 29.65 in 10.0 mi West 9.2 mph - N/A   Overcast
1:31 AM 40.1 °F 35.3 °F 37.4 °F 90% 29.66 in 10.0 mi WSW 6.9 mph - N/A   Overcast
1:51 AM 39.7 °F 34.9 °F 37.4 °F 91% 29.66 in 10.0 mi WSW 6.9 mph - N/A   Overcast
2:11 AM 39.7 °F 34.3 °F 37.4 °F 91% 29.66 in 10.0 mi WSW 8.1 mph - N/A   Overcast
2:31 AM 39.6 °F 34.7 °F 37.0 °F 91% 29.67 in 10.0 mi WSW 6.9 mph - N/A   Overcast
2:52 AM 39.6 °F 34.0 °F 36.5 °F 89% 29.67 in 10.0 mi West 8.1 mph - N/A   Overcast
3:12 AM 39.4 °F 34.5 °F 36.1 °F 88% 29.67 in 10.0 mi West 6.9 mph - N/A   Overcast
3:32 AM 39.2 °F 32.5 °F 36.1 °F 89% 29.67 in 10.0 mi West 10.4 mph - N/A   Overcast
3:52 AM 38.8 °F 32.6 °F 35.8 °F 89% 29.67 in 10.0 mi WSW 9.2 mph - N/A   Overcast
4:12 AM 38.7 °F 32.9 °F 35.6 °F 89% 29.68 in 10.0 mi West 8.1 mph - N/A   Overcast
4:32 AM 38.5 °F 33.4 °F 35.6 °F 89% 29.67 in 10.0 mi WSW 6.9 mph - N/A   Overcast
4:52 AM 38.3 °F 33.9 °F 35.6 °F 90% 29.67 in 10.0 mi WSW 5.8 mph - N/A   Overcast
5:12 AM 38.3 °F 33.2 °F 35.6 °F 90% 29.68 in 10.0 mi West 6.9 mph - N/A   Overcast
5:32 AM 38.3 °F 33.9 °F 35.1 °F 88% 29.68 in 10.0 mi West 5.8 mph - N/A   Overcast
5:53 AM 38.1 °F 33.7 °F 35.2 °F 89% 29.68 in 10.0 mi WSW 5.8 mph - N/A   Overcast
6:13 AM 38.3 °F 33.9 °F 34.9 °F 87% 29.69 in 10.0 mi WSW 5.8 mph - N/A   Overcast
6:33 AM 38.1 °F 33.7 °F 34.7 °F 87% 29.69 in 10.0 mi WSW 5.8 mph - N/A   Overcast
6:53 AM 38.3 °F 35.9 °F 34.7 °F 87% 29.70 in 10.0 mi WSW 3.5 mph - N/A   Overcast
7:13 AM 38.3 °F 34.8 °F 34.7 °F 87% 29.71 in 10.0 mi SW 4.6 mph - N/A   Overcast
7:33 AM 38.3 °F 34.8 °F 34.7 °F 87% 29.71 in 10.0 mi WSW 4.6 mph - N/A   Overcast
7:53 AM 38.3 °F 35.9 °F 34.7 °F 87% 29.72 in 10.0 mi WSW 3.5 mph - N/A   Overcast
8:13 AM 38.3 °F 35.9 °F 34.7 °F 87% 29.71 in 10.0 mi WSW 3.5 mph - N/A   Overcast
8:34 AM 38.1 °F 35.7 °F 34.7 °F 87% 29.71 in 10.0 mi WSW 3.5 mph - N/A   Overcast
8:54 AM 38.3 °F - 34.7 °F 87% 29.71 in 10.0 mi Calm Calm - N/A   Overcast
9:14 AM 38.3 °F - 34.9 °F 87% 29.71 in 10.0 mi Calm Calm - N/A   Overcast
9:34 AM 38.3 °F - 35.4 °F 89% 29.71 in 10.0 mi Calm Calm - N/A   Overcast
9:54 AM 38.7 °F - 35.6 °F 89% 29.71 in 10.0 mi Calm Calm - N/A   Overcast
10:14 AM 39.2 °F - 35.4 °F 86% 29.71 in 10.0 mi Calm Calm - N/A   Overcast
10:34 AM 39.0 °F - 35.8 °F 88% 29.71 in 10.0 mi Calm Calm - N/A   Overcast
10:54 AM 39.2 °F 37.0 °F 36.0 °F 88% 29.70 in 10.0 mi South 3.5 mph - N/A   Overcast
11:15 AM 39.4 °F 37.2 °F 36.3 °F 89% 29.70 in 10.0 mi South 3.5 mph - N/A   Overcast
11:35 AM 39.7 °F 36.5 °F 36.0 °F 86% 29.69 in 10.0 mi South 4.6 mph - N/A   Overcast
11:55 AM 40.1 °F 38.0 °F 36.0 °F 85% 29.68 in 10.0 mi SW 3.5 mph - N/A   Overcast
12:15 PM 40.5 °F 38.4 °F 36.3 °F 85% 29.67 in 10.0 mi SSW 3.5 mph - N/A   Overcast
12:35 PM 40.3 °F 37.1 °F 35.8 °F 84% 29.66 in 10.0 mi SSW 4.6 mph - N/A   Overcast
12:55 PM 40.3 °F 37.1 °F 34.5 °F 80% 29.66 in 10.0 mi South 4.6 mph - N/A   Overcast
1:10 PM 40.1 °F - 33.8 °F 78% 29.66 in 10.0 mi Calm Calm - N/A   Overcast
1:30 PM 40.8 °F 37.8 °F 33.1 °F 74% 29.66 in 10.0 mi West 4.6 mph - N/A   Overcast
1:50 PM 40.8 °F 37.8 °F 33.8 °F 76% 29.65 in 10.0 mi West 4.6 mph - N/A   Overcast
2:11 PM 40.6 °F 36.7 °F 33.4 °F 75% 29.65 in 10.0 mi West 5.8 mph - N/A   Overcast
2:31 PM 40.3 °F 38.2 °F 33.1 °F 75% 29.65 in 10.0 mi WSW 3.5 mph - N/A   Overcast
2:51 PM 40.3 °F 36.3 °F 33.3 °F 76% 29.65 in 10.0 mi West 5.8 mph - N/A   Overcast
3:11 PM 40.1 °F 36.9 °F 33.1 °F 76% 29.65 in 10.0 mi WSW 4.6 mph - N/A   Overcast
3:31 PM 40.1 °F 36.9 °F 32.7 °F 75% 29.65 in 10.0 mi WSW 4.6 mph - N/A   Overcast
3:51 PM 40.1 °F 36.9 °F 32.5 °F 74% 29.65 in 10.0 mi WSW 4.6 mph - N/A   Overcast
4:12 PM 40.1 °F 38.0 °F 32.4 °F 74% 29.66 in 10.0 mi West 3.5 mph - N/A   Overcast
4:32 PM 40.1 °F - 32.4 °F 74% 29.66 in 10.0 mi Calm Calm - N/A   Overcast
4:52 PM 39.6 °F - 32.2 °F 75% 29.65 in 10.0 mi Calm Calm - N/A   Overcast
7:33 PM 35.8 °F - 34.0 °F 93% 29.65 in 10.0 mi Calm Calm - N/A   Overcast
7:53 PM 35.4 °F 31.5 °F 32.7 °F 90% 29.65 in 10.0 mi NNW 4.6 mph - N/A   Overcast
8:13 PM 34.3 °F 31.4 °F 32.4 °F 92% 29.64 in 10.0 mi NNW 3.5 mph - N/A   Overcast
8:33 PM 34.5 °F 31.6 °F 32.2 °F 91% 29.64 in 10.0 mi North 3.5 mph - N/A   Overcast
8:53 PM 34.3 °F - 32.0 °F 91% 29.64 in 10.0 mi Calm Calm - N/A   Overcast
9:14 PM 36.0 °F 33.3 °F 32.0 °F 86% 29.64 in 10.0 mi NNE 3.5 mph - N/A   Overcast
9:34 PM 35.6 °F 31.7 °F 32.0 °F 87% 29.64 in 10.0 mi NNW 4.6 mph - N/A   Overcast
9:54 PM 34.7 °F 30.6 °F 31.8 °F 89% 29.64 in 10.0 mi NNW 4.6 mph - N/A   Mostly Cloudy
10:14 PM 33.4 °F 30.4 °F 31.1 °F 91% 29.64 in 10.0 mi NNW 3.5 mph - N/A   Mostly Cloudy
10:34 PM 32.9 °F - 31.1 °F 93% 29.65 in 10.0 mi Calm Calm - N/A   Overcast
10:54 PM 32.9 °F - 31.6 °F 95% 29.66 in 10.0 mi Calm Calm - N/A   Overcast
11:14 PM 32.5 °F 29.3 °F 31.3 °F 95% 29.66 in 10.0 mi NW 3.5 mph - N/A   Overcast
11:35 PM 32.9 °F - 31.6 °F 95% 29.67 in 10.0 mi Calm Calm - N/A   Overcast
11:54 PM 32.9 °F - 31.5 °F 94% 29.67 in 10.0 mi Calm Calm - N/A   Overcast